Vorticity
7 6 7 7 6 5 7 8 5 5 4 4 8 6 18 30 21 16 10 9 7 6 5 6 11 3 3 -1 -2 4 0 7 9 7 5 3 4 4 7 6 4 3 7 10 6 5 6 8 8 7 6 6 6 5 6 6 7 7 7 8 8 8 6 6 7 7 8 8 6 4 4 3 5 7 6 6 6 7 7 7 6 6 5 5 5 4 4 5 5 5 5 5 5 6 6 8 9
6 6 7 8 9 7 8 8 6 4 4 8 8 7 21 27 18 16 12 6 6 5 4 10 13 2 3 1 0 4 2 4 5 8 5 2 3 4 6 6 6 4 8 9 6 6 7 9 6 6 6 5 5 5 7 7 8 7 8 8 7 8 6 7 8 7 8 8 6 5 6 5 5 8 6 5 6 7 7 7 6 6 5 5 4 4 4 4 4 5 5 5 5 6 7 8 7
3 6 6 8 11 9 10 6 4 3 3 7 6 9 18 17 11 7 2 3 5 5 6 11 9 3 5 5 4 4 5 6 7 7 3 4 5 5 6 5 5 5 8 8 6 6 8 9 6 6 6 5 5 6 7 7 8 8 8 8 7 8 6 7 8 7 9 9 6 5 7 7 5 7 7 5 6 7 7 6 6 5 5 5 5 4 4 5 5 5 5 6 6 6 7 8 6
1 6 6 9 9 8 9 1 6 8 3 7 7 8 11 8 4 -1 -1 4 7 7 7 6 5 5 7 6 4 4 5 5 6 5 4 5 5 7 6 4 5 6 8 7 6 6 9 8 5 6 6 6 5 6 7 7 7 8 8 8 8 8 7 7 7 7 9 7 6 7 8 9 6 7 7 5 6 6 7 7 8 7 6 5 5 4 4 5 6 7 8 7 6 8 8 7 5
1 5 7 2 -2 10 11 4 21 20 6 11 11 8 7 5 3 1 2 7 9 8 5 3 4 5 6 6 4 4 4 4 6 6 5 4 5 7 7 6 5 6 6 6 6 7 10 7 6 7 6 5 6 7 7 7 7 7 7 7 8 7 7 7 7 7 8 6 5 6 8 9 7 7 7 6 6 5 6 6 7 8 7 7 6 5 4 5 7 10 12 9 8 10 8 6 5
1 5 8 -1 -5 14 12 8 24 16 9 15 12 8 5 3 4 4 6 10 8 5 4 3 5 5 5 5 4 4 3 4 6 8 8 3 6 7 6 7 5 6 5 5 6 8 10 6 7 7 6 5 6 7 6 7 7 6 7 7 7 7 7 8 7 6 9 8 5 7 7 8 6 6 7 6 6 6 6 5 6 7 7 7 8 7 5 5 7 9 13 11 8 10 8 6 5
3 6 9 7 6 14 10 10 14 10 14 15 9 6 2 3 6 6 7 8 6 5 4 2 5 4 4 4 3 3 3 4 4 7 8 4 8 7 4 6 7 6 4 6 6 8 9 6 7 6 6 5 6 7 6 6 6 7 6 6 7 7 8 9 8 5 8 9 6 7 7 6 5 5 6 6 7 7 7 6 6 6 7 8 8 8 7 7 5 6 10 11 9 10 7 5 5
4 9 10 10 8 8 7 10 9 8 11 9 7 6 4 6 7 7 7 6 6 5 3 3 4 3 4 4 2 3 3 5 5 6 8 4 7 8 5 5 7 7 5 5 6 7 8 6 6 6 6 6 6 6 5 6 6 7 6 6 7 8 8 9 10 7 8 9 7 7 6 6 5 5 6 6 7 7 7 7 6 6 6 7 7 8 8 8 6 3 4 6 8 10 7 6 7
3 8 8 4 3 4 7 8 7 6 6 5 6 7 8 7 6 7 6 6 5 3 4 4 4 5 6 3 3 5 4 7 7 7 7 5 8 8 6 6 8 9 7 5 6 8 7 5 6 6 7 6 6 5 5 7 7 7 6 6 7 8 8 8 10 9 9 8 7 7 6 5 5 6 7 6 7 7 6 7 7 6 6 6 6 7 8 8 6 3 2 2 5 6 6 6 6
2 4 3 3 4 5 6 8 8 7 5 5 6 8 8 6 6 6 6 6 4 4 6 5 5 6 6 4 5 6 6 8 7 7 8 7 8 6 7 8 7 9 9 6 6 8 6 5 6 7 7 6 5 4 6 8 8 6 5 6 7 8 8 8 9 9 10 8 8 7 6 6 6 6 7 6 6 7 7 7 7 8 7 6 6 7 7 6 6 6 4 4 4 4 5 5 5
4 4 4 4 5 5 5 6 7 10 9 8 8 7 7 6 5 5 6 5 4 5 5 4 4 4 4 4 6 7 7 7 6 6 6 8 6 4 9 9 7 8 8 8 8 7 6 5 6 7 7 6 4 4 8 10 8 6 6 7 8 8 8 9 9 9 9 8 8 7 6 7 7 7 8 8 8 8 8 8 8 10 9 7 7 7 6 6 7 7 7 8 7 5 5 6 7
6 6 5 4 7 6 5 6 8 10 10 9 7 5 6 6 5 6 6 5 5 4 3 2 3 5 5 5 6 6 6 6 6 4 2 7 5 3 9 9 8 8 6 9 10 7 6 5 6 6 7 5 4 6 11 10 7 6 6 7 8 9 8 9 9 9 8 8 8 9 8 8 8 9 10 11 11 10 10 9 8 9 10 8 8 7 6 6 8 8 9 10 8 6 5 5 5
5 6 6 5 7 7 6 7 8 8 7 10 8 5 6 5 6 8 5 5 6 3 2 3 5 5 2 3 4 4 6 6 4 4 2 4 5 4 8 9 10 11 7 8 10 8 6 5 6 7 7 4 4 9 12 9 6 6 6 8 9 9 9 9 9 8 8 8 8 9 9 8 9 9 9 9 10 10 11 11 9 8 9 8 8 8 7 7 9 9 10 10 9 7 6 5 5
5 5 4 2 3 4 4 5 6 4 4 9 9 6 5 5 6 6 5 6 4 3 4 4 6 4 3 5 6 6 5 4 3 3 3 2 4 5 9 10 11 12 8 6 10 9 6 6 7 7 6 4 6 11 12 8 6 6 6 9 9 8 9 9 8 8 9 10 9 10 11 11 10 10 9 8 9 10 9 10 10 9 8 8 8 7 7 8 9 9 9 9 9 9 9 9 8
4 2 -0 0 2 2 1 1 3 1 2 6 6 6 6 5 6 5 5 5 3 5 5 6 5 3 7 8 9 13 9 3 3 2 3 2 2 3 8 11 11 11 8 6 9 9 6 6 7 7 6 5 9 14 11 6 6 6 7 8 7 8 8 8 9 10 12 13 13 14 14 13 12 11 11 10 10 10 8 8 9 9 9 8 7 7 8 9 9 10 10 10 11 12 11 12 11
3 2 2 4 5 5 4 3 2 1 2 4 4 6 7 6 6 6 5 5 6 8 7 5 4 4 8 5 5 14 13 8 4 2 1 2 2 3 6 10 10 10 8 8 8 8 7 6 7 7 5 7 12 14 9 5 6 6 7 7 6 7 7 9 11 11 11 10 11 11 11 11 10 10 10 10 10 10 10 9 9 8 8 8 8 8 9 9 9 9 10 10 10 10 10 10 11
7 4 5 7 7 9 7 4 3 2 4 5 5 5 5 5 6 6 6 5 5 7 6 3 1 3 6 5 4 6 12 13 5 1 2 2 2 3 6 10 10 8 8 8 7 7 6 6 7 6 6 10 14 12 7 6 6 6 7 6 6 7 9 12 10 7 6 5 5 5 6 6 5 6 6 8 8 8 9 9 10 9 8 9 9 9 8 8 8 8 8 8 8 8 9 8 7
7 3 6 7 6 8 5 3 3 4 7 6 3 3 4 5 5 5 4 1 2 4 3 3 3 2 4 5 4 2 8 12 7 3 4 3 2 3 7 11 10 7 8 8 7 6 6 7 7 6 8 13 14 10 7 6 6 7 6 6 7 9 11 10 6 3 3 3 3 3 4 4 4 5 5 6 6 6 6 7 8 8 8 7 7 7 7 8 9 9 8 8 8 7 7 7 7
4 2 6 5 4 5 2 4 7 8 14 15 9 7 6 4 4 4 4 1 1 2 3 6 5 4 5 6 5 2 5 8 10 10 5 3 3 4 9 12 11 7 8 9 6 5 5 7 7 7 11 15 13 8 6 6 7 7 6 7 9 10 9 5 3 3 4 4 4 4 5 5 5 5 5 5 5 5 5 6 7 7 7 6 6 6 7 7 8 9 8 9 9 8 7 7 7
4 1 2 4 3 3 3 6 7 6 11 13 11 12 8 4 5 6 8 7 4 4 6 10 7 7 10 7 5 3 3 6 13 12 4 2 3 5 8 11 13 9 9 9 7 6 6 7 7 9 13 15 11 7 5 5 8 8 7 9 10 8 5 3 4 5 5 6 5 5 5 6 5 5 5 6 7 7 6 6 6 7 8 8 8 7 8 8 7 8 8 8 8 8 8 7 7
5 3 1 2 2 4 6 5 4 2 2 4 8 12 8 4 6 7 10 10 10 10 9 10 8 7 9 9 8 6 2 3 11 11 3 1 4 5 5 8 12 11 9 9 7 6 6 6 7 10 14 14 9 5 4 6 10 10 9 10 8 5 3 4 6 6 6 5 4 5 5 5 5 6 6 8 8 8 7 7 8 8 8 8 8 7 8 8 7 7 6 6 6 6 6 6 7
2 5 4 2 2 4 7 3 1 2 2 4 6 8 5 3 6 5 5 6 7 8 5 6 7 7 8 8 11 12 5 3 10 9 2 1 3 5 4 7 12 9 8 9 8 7 7 6 8 12 14 12 8 5 5 10 14 12 10 8 4 3 4 6 6 6 4 3 4 5 5 5 5 6 7 8 8 7 7 7 9 9 8 7 6 7 6 6 6 5 5 5 4 4 5 5 5
3 4 4 4 2 2 6 5 3 3 4 6 5 3 2 4 6 4 4 3 2 4 4 5 7 6 5 3 8 12 7 6 9 6 1 1 3 5 4 8 14 11 8 9 7 8 7 7 10 12 13 10 6 5 7 13 15 11 7 4 3 4 6 6 6 4 3 3 5 6 7 7 6 6 7 7 7 7 7 7 8 8 7 6 6 6 5 4 4 3 4 3 3 4 4 5 5
9 6 3 4 3 1 3 4 5 4 5 7 5 4 6 6 5 5 7 4 3 6 6 7 6 5 5 5 9 9 9 13 11 5 3 4 7 8 4 7 15 12 8 8 6 7 8 8 11 12 12 10 6 6 11 14 11 6 4 3 4 6 7 6 4 4 4 3 4 6 7 7 6 6 6 6 7 7 7 7 8 8 6 6 6 5 4 4 4 4 3 3 3 3 3 5 5
8 10 7 5 4 3 -0 0 5 6 5 5 4 4 7 5 3 7 9 5 5 7 6 7 6 6 8 10 11 6 10 20 15 6 5 6 6 6 5 6 13 11 7 8 6 7 9 8 12 12 11 8 6 9 12 10 5 3 3 3 5 7 7 4 4 4 4 4 4 6 6 6 5 5 5 6 6 7 7 8 8 7 7 6 6 5 5 4 4 4 4 4 4 4 5 5 6
3 9 11 7 5 5 2 0 3 7 5 3 3 4 4 3 5 9 7 3 4 5 5 7 8 8 9 9 10 8 10 16 11 5 4 5 3 4 5 6 11 11 8 9 7 7 8 9 13 12 10 8 8 11 10 5 3 3 3 5 8 7 5 4 3 4 4 4 4 6 5 4 4 5 6 6 5 6 6 7 6 6 5 5 5 4 4 3 3 4 4 5 5 6 6 6 7
2 6 11 11 8 6 5 3 3 8 8 5 4 5 4 4 8 9 5 3 6 6 6 9 10 8 7 7 11 12 10 11 11 7 3 4 3 3 4 4 9 10 8 9 8 8 7 10 14 11 10 9 10 12 6 3 3 3 5 7 7 5 5 4 3 4 4 4 4 5 5 4 5 5 5 5 5 5 5 5 5 4 5 4 4 3 3 3 3 4 4 5 5 6 6 7 7
2 3 8 11 11 8 6 4 2 6 8 4 6 7 4 5 7 8 6 6 9 8 7 9 8 3 5 10 12 15 11 11 14 8 1 2 2 3 4 4 9 8 7 8 8 8 6 10 14 10 10 11 12 10 4 3 4 4 7 8 5 3 4 4 4 5 5 5 5 5 5 5 5 5 5 5 4 4 4 5 5 4 5 5 4 3 2 3 3 4 5 5 6 7 7 7 7
1 2 6 9 11 8 7 7 3 4 5 1 5 6 3 5 6 7 8 8 8 6 5 7 5 2 8 12 12 15 11 8 10 6 3 4 4 5 6 5 9 7 6 8 8 9 6 9 14 10 10 11 9 6 3 3 4 5 8 6 5 3 4 4 4 5 5 6 5 4 6 6 5 5 5 5 5 5 4 5 4 4 4 4 4 4 3 4 5 5 6 6 7 7 7 7 7
1 0 5 8 11 8 7 10 5 3 4 2 5 5 3 4 7 10 11 7 4 4 5 6 7 7 10 10 10 13 9 4 4 5 6 8 7 7 7 7 8 6 6 8 8 9 6 8 13 9 8 8 5 5 3 2 4 6 6 6 6 5 4 5 5 6 6 5 5 6 6 5 5 6 6 7 7 6 5 5 5 4 4 4 4 4 4 4 5 7 9 9 9 8 7 6 7
2 -2 3 9 12 10 8 10 7 5 5 4 8 8 2 1 5 8 8 4 1 5 7 6 8 10 10 9 10 9 4 3 5 7 8 9 9 7 7 9 9 6 6 8 8 8 7 7 12 10 7 6 4 4 3 3 5 5 6 6 7 6 6 5 5 6 6 5 6 7 6 6 7 7 7 8 8 8 8 8 7 6 4 5 5 5 5 5 7 10 11 10 9 7 6 6 7
4 -4 0 8 11 10 7 7 7 7 5 3 8 9 -0 -5 -1 3 6 7 5 6 7 6 8 10 8 8 9 6 4 8 11 10 10 10 10 8 8 8 10 8 5 8 9 9 7 6 11 10 6 5 3 3 4 4 5 5 6 6 6 6 6 5 6 6 6 7 8 7 7 8 8 8 8 9 10 10 10 9 9 8 7 7 7 7 8 10 11 12 10 7 6 7 6 6 7
4 -2 -1 6 11 9 7 8 6 3 3 3 4 4 2 -3 -4 -1 6 11 7 5 7 8 9 7 6 7 7 7 9 12 11 9 10 11 9 8 8 8 9 9 5 6 8 9 8 6 10 11 6 5 3 3 5 5 5 6 6 5 5 6 6 6 6 6 7 9 8 7 8 8 8 9 9 11 11 10 10 10 9 10 11 11 11 10 10 10 10 9 6 5 6 7 8 8 10
5 2 2 5 12 11 6 9 7 3 4 6 3 1 6 5 0 -0 5 11 7 5 8 6 6 5 4 5 5 7 11 10 7 6 7 9 9 7 8 8 8 9 6 5 8 8 8 6 9 11 6 4 3 3 5 5 5 7 7 6 6 6 6 6 7 8 9 9 7 7 7 7 7 8 10 11 11 11 11 10 10 11 11 11 11 9 8 6 6 6 4 4 6 7 9 12 14
7 4 2 3 9 11 8 7 9 9 6 5 3 0 6 6 2 3 6 12 11 9 10 4 4 7 5 4 4 3 8 8 6 8 8 9 10 6 7 10 9 10 7 6 8 9 9 7 9 12 7 4 4 3 4 4 5 8 8 7 6 5 5 6 8 9 9 7 6 6 6 6 6 7 9 11 11 11 10 9 9 9 9 9 7 5 4 4 4 4 4 4 5 7 11 13 15
8 6 4 3 5 8 9 5 4 8 9 8 6 1 4 3 -1 2 6 11 11 11 11 4 3 9 6 5 5 1 3 5 7 12 11 12 13 7 7 11 10 11 9 5 7 10 10 8 9 12 8 4 4 4 4 3 5 8 7 6 5 4 5 6 8 9 8 6 6 6 5 5 6 7 8 9 9 8 7 7 7 7 6 5 4 3 3 4 4 5 4 4 6 8 10 11 13
8 6 5 5 6 7 9 8 4 5 6 9 11 4 3 3 -2 -1 3 6 7 10 11 5 3 7 5 6 7 3 1 4 9 14 13 12 15 11 8 11 13 12 9 5 5 9 10 8 8 11 10 6 4 4 5 5 6 6 5 5 5 4 5 6 8 9 7 5 5 5 5 5 6 7 7 6 5 5 5 5 6 6 5 3 3 4 6 7 7 7 4 3 6 7 8 9 11
11 6 5 4 7 8 8 10 9 8 6 4 7 7 5 5 1 0 4 3 4 9 9 5 3 4 5 7 8 4 2 5 9 14 15 12 14 15 11 12 14 13 10 5 5 9 10 9 8 10 11 8 5 4 5 5 5 4 4 5 6 6 5 6 8 8 7 5 4 4 5 6 7 7 6 5 4 4 5 6 6 6 4 3 3 6 9 10 9 6 4 4 7 8 7 8 9
12 10 8 4 5 8 6 7 8 10 11 6 5 7 5 5 4 3 4 0 2 10 10 5 3 3 5 5 6 4 2 7 9 10 13 11 11 14 13 12 14 13 11 7 6 8 10 10 8 8 11 9 6 5 4 5 4 3 5 6 6 6 7 9 9 8 6 5 4 5 5 5 7 7 7 5 4 4 5 5 6 6 4 3 4 7 9 8 7 6 5 7 9 9 7 7 7
11 11 11 7 5 9 8 5 6 8 11 8 6 6 2 3 7 4 2 -0 2 10 11 6 2 -0 2 4 5 6 5 7 8 7 10 11 11 14 13 11 12 13 12 8 5 7 9 11 9 7 10 11 6 4 4 4 3 3 6 8 7 7 9 10 9 8 6 4 4 4 5 5 6 7 7 7 7 6 6 5 6 6 5 4 6 8 7 5 7 8 8 9 8 8 9 8 7
9 10 12 10 5 9 10 7 6 6 9 8 5 7 3 2 7 4 0 0 3 10 11 8 4 -3 -1 5 5 5 5 5 6 6 9 11 10 12 14 11 9 10 13 10 5 6 9 10 9 7 9 11 7 4 3 3 3 4 5 7 7 9 11 9 8 7 5 3 4 4 4 5 6 7 8 8 9 8 7 6 6 6 6 6 8 8 6 4 7 10 11 11 8 8 10 9 7
8 8 11 11 7 7 8 9 8 4 8 9 5 11 10 2 4 4 1 2 4 9 11 9 8 -1 -1 8 5 2 5 6 6 4 8 12 10 12 16 15 11 8 11 12 6 5 7 8 10 8 8 10 7 4 4 4 4 4 7 7 5 7 8 7 6 5 3 3 5 5 4 5 6 7 7 8 9 9 8 7 6 7 7 8 9 8 6 5 7 11 12 11 9 9 10 9 7
7 7 10 11 10 10 7 8 10 6 7 8 5 12 12 5 5 4 3 5 4 8 10 7 7 1 3 10 5 1 5 8 7 4 7 11 11 15 19 18 14 10 10 12 8 5 7 8 10 9 7 9 8 6 5 5 4 5 7 7 5 4 3 3 5 4 5 6 5 4 5 6 7 7 7 8 9 9 9 8 7 7 7 8 10 9 7 5 7 11 12 10 9 9 9 9 8
6 6 9 10 10 11 8 6 8 9 8 7 5 9 11 9 8 5 5 7 5 8 9 6 5 3 7 11 5 1 3 6 7 4 5 7 7 11 15 15 14 11 12 13 8 5 6 7 10 10 8 7 8 8 6 5 6 6 6 6 4 2 1 3 5 6 7 6 5 4 5 6 7 7 9 9 9 9 9 8 8 7 7 8 9 9 8 6 7 11 12 10 9 9 8 8 8
5 5 7 10 11 10 8 7 6 8 9 8 6 6 9 13 11 7 8 8 7 8 7 7 4 4 11 12 5 2 1 3 6 4 3 3 4 6 10 12 13 11 12 14 10 6 6 7 10 11 8 7 8 9 8 6 7 6 5 4 1 -0 3 7 7 7 7 5 4 5 5 6 7 7 9 9 8 8 8 8 7 7 7 7 8 8 8 7 6 9 10 10 10 9 9 8 7
4 4 4 8 14 11 8 8 6 6 8 8 7 4 6 14 15 9 10 11 9 7 6 6 4 7 14 11 3 3 2 2 4 2 1 2 2 4 8 12 13 12 13 15 12 6 6 8 10 12 9 6 7 8 9 8 6 5 4 3 -1 -0 6 11 10 9 6 4 4 4 5 6 7 7 7 8 8 7 7 7 7 7 7 7 7 7 8 8 7 7 9 10 11 10 10 8 8
4 3 2 6 13 13 10 8 5 4 6 5 7 4 1 13 18 8 7 13 10 7 7 5 6 11 12 7 2 3 3 1 1 1 0 2 3 4 10 15 14 13 13 16 16 8 5 9 9 12 12 8 7 8 8 8 7 5 3 1 0 2 5 9 11 9 7 6 4 4 5 7 7 7 7 6 6 6 7 7 7 7 8 8 9 8 8 8 7 8 8 9 11 11 10 9 9
7 3 1 4 9 12 12 10 4 1 2 3 8 6 -0 13 24 10 3 11 10 7 8 5 7 12 9 5 5 5 3 1 -1 0 1 3 3 4 11 15 14 14 12 13 18 12 5 8 9 12 14 10 7 7 8 8 7 5 3 1 1 3 5 6 8 8 7 7 5 4 6 7 6 6 6 6 6 6 6 7 9 10 11 11 11 11 10 9 8 8 8 8 10 11 11 11 11
8 4 0 2 6 9 12 12 5 0 0 2 7 7 -2 5 23 16 3 9 11 8 10 7 7 10 6 3 5 6 5 1 -0 1 3 3 4 5 9 11 11 14 11 11 16 14 6 6 9 12 14 12 9 8 7 8 8 6 4 1 1 4 4 3 5 7 7 7 6 6 6 5 6 6 6 7 7 8 8 10 12 13 13 12 13 13 12 11 10 10 10 10 10 10 11 11 11
8 5 1 1 4 7 10 10 8 3 1 4 7 5 -6 -5 16 20 8 9 12 8 9 9 6 7 5 0 1 5 6 3 2 2 2 3 4 6 8 7 9 12 12 12 14 14 8 5 8 11 13 14 11 8 8 8 9 8 6 3 2 5 4 1 3 7 9 9 6 6 6 6 6 6 8 9 9 9 9 10 11 11 10 10 11 11 11 11 10 10 10 9 9 9 10 11 11
8 8 4 1 3 7 9 8 10 8 2 4 5 0 -5 -2 14 20 12 11 11 8 10 10 6 6 7 1 -3 3 6 4 1 0 2 3 4 7 7 6 8 11 13 14 15 15 8 4 6 9 12 14 12 10 8 8 8 8 8 5 3 6 4 -0 2 7 11 13 9 5 5 6 6 8 10 9 8 7 6 7 7 6 6 6 6 7 7 7 7 7 7 7 7 7 7 8 9
5 7 6 5 2 3 7 7 11 13 8 6 3 -2 -6 -2 12 19 15 12 10 10 12 11 7 8 9 4 -2 -0 4 3 0 -0 2 2 3 5 6 5 6 9 13 15 16 16 9 3 5 7 10 13 12 11 9 8 8 8 8 7 6 7 4 -1 1 5 10 14 11 6 5 5 6 9 10 8 7 5 4 4 3 2 3 3 3 2 3 3 3 4 4 5 5 4 5 6 6
2 3 7 8 2 0 6 7 7 11 12 9 6 3 -3 -5 8 17 15 13 10 10 12 10 8 9 9 7 2 -1 2 3 1 1 2 2 3 4 5 4 3 7 14 17 17 17 11 4 5 7 9 10 11 11 9 8 7 7 7 8 8 7 5 1 1 4 9 12 11 7 5 4 5 7 7 6 5 4 3 3 1 1 1 1 1 1 0 0 1 1 1 2 3 3 3 4 5
6 3 6 7 3 2 6 6 5 8 10 9 8 7 3 1 9 15 14 14 12 9 10 9 7 6 6 7 4 1 3 5 4 2 1 2 2 3 4 3 2 5 13 16 14 16 13 6 5 6 8 9 9 10 9 8 7 6 6 7 8 8 5 2 1 4 7 9 10 8 4 4 6 6 6 5 5 5 4 4 3 2 1 1 1 1 1 1 0 1 1 1 1 2 3 3 4
10 7 5 4 4 6 6 5 4 4 5 8 8 8 7 5 10 15 15 13 12 11 9 7 6 5 4 5 5 2 2 5 6 3 2 4 5 4 3 3 2 4 10 14 13 13 12 7 5 6 7 7 8 8 8 8 7 6 6 6 7 7 5 2 1 4 6 7 9 9 6 5 6 6 5 4 5 5 5 5 5 4 4 3 3 2 2 2 2 2 3 3 2 2 3 3 4
13 9 7 6 5 6 7 6 5 4 4 4 6 9 9 4 4 13 20 16 11 12 11 7 6 6 4 4 6 6 4 5 7 6 5 7 7 6 3 3 3 3 8 13 13 12 11 9 6 5 5 7 8 9 8 8 7 7 6 6 7 6 4 2 2 4 5 6 8 8 7 6 6 6 4 4 5 5 5 5 5 6 6 5 5 4 3 3 4 4 4 5 5 5 4 4 4
14 8 6 7 6 5 5 6 6 4 4 3 4 9 10 6 2 6 17 21 14 11 13 10 6 5 6 7 8 8 6 4 6 5 6 9 10 7 4 3 4 3 6 10 12 11 10 10 8 5 4 6 8 10 10 9 10 9 7 6 6 6 5 2 2 4 5 6 6 8 8 7 5 5 4 3 4 5 5 6 6 5 5 5 5 4 4 3 4 4 5 6 6 6 6 7 6
13 9 7 5 4 5 4 5 6 4 3 3 4 7 7 9 8 4 11 21 18 13 14 11 6 5 7 8 10 9 6 5 5 4 5 9 10 9 7 4 4 4 4 9 11 11 10 9 9 7 5 4 5 8 10 11 11 11 9 8 6 5 5 3 2 3 5 6 5 6 8 8 6 5 4 3 4 5 6 6 6 4 4 4 3 3 4 4 4 5 6 7 6 7 7 7 7
Height
5897 5897 5898 5899 5899 5900 5900 5901 5901 5901 5902 5902 5902 5901 5900 5900 5901 5901 5902 5903 5905 5906 5907 5907 5908 5909 5909 5909 5910 5910 5909 5909 5910 5910 5910 5910 5911 5911 5911 5912 5912 5913 5913 5913 5913 5913 5914 5914 5914 5914 5914 5914 5913 5914 5914 5915 5915 5915 5915 5915 5915 5914 5914 5913 5913 5915 5919 5921 5919 5917 5917 5919 5919 5919 5919 5919 5919 5920 5920 5921 5921 5922 5922 5922 5921 5922 5923 5923 5924 5924 5924 5923 5923 5922 5922 5923 5924
5896 5897 5898 5899 5899 5900 5900 5900 5901 5901 5902 5902 5902 5901 5901 5900 5901 5902 5903 5904 5905 5906 5906 5907 5908 5909 5909 5910 5910 5910 5910 5910 5910 5910 5910 5911 5911 5911 5912 5912 5913 5913 5914 5914 5914 5914 5914 5914 5914 5915 5915 5915 5914 5915 5915 5915 5916 5916 5916 5916 5915 5915 5915 5914 5914 5917 5921 5920 5918 5917 5918 5920 5920 5920 5920 5920 5920 5921 5921 5922 5922 5922 5923 5923 5922 5923 5924 5924 5924 5924 5924 5924 5923 5923 5923 5924 5925
5897 5898 5898 5899 5899 5899 5900 5900 5900 5901 5902 5902 5902 5902 5902 5902 5902 5903 5904 5905 5906 5906 5907 5908 5908 5909 5910 5910 5911 5911 5911 5911 5911 5911 5911 5911 5911 5911 5912 5913 5914 5914 5914 5915 5915 5915 5915 5915 5915 5916 5916 5916 5915 5915 5916 5916 5916 5917 5916 5916 5916 5916 5916 5915 5916 5919 5921 5920 5919 5919 5920 5921 5921 5921 5921 5921 5921 5922 5922 5922 5922 5923 5923 5923 5923 5923 5924 5925 5925 5924 5925 5925 5925 5924 5924 5924 5926
5897 5898 5898 5899 5899 5899 5900 5900 5900 5901 5902 5902 5902 5903 5902 5903 5903 5904 5904 5905 5906 5906 5907 5908 5908 5909 5910 5911 5911 5912 5912 5912 5911 5911 5912 5911 5911 5911 5912 5913 5914 5914 5915 5915 5915 5915 5916 5916 5916 5916 5917 5916 5916 5916 5916 5917 5917 5917 5917 5917 5917 5917 5917 5917 5918 5921 5921 5919 5920 5921 5922 5922 5922 5922 5922 5922 5922 5923 5923 5923 5923 5924 5924 5923 5924 5924 5925 5926 5925 5925 5925 5926 5926 5926 5926 5926 5927
5897 5898 5898 5898 5899 5899 5900 5900 5900 5901 5902 5902 5903 5903 5903 5904 5904 5904 5905 5906 5906 5907 5908 5908 5908 5909 5910 5911 5912 5912 5912 5912 5912 5912 5912 5912 5912 5912 5913 5914 5914 5915 5915 5916 5916 5916 5916 5916 5916 5916 5917 5916 5916 5916 5916 5917 5917 5917 5917 5917 5918 5918 5918 5918 5919 5922 5921 5920 5921 5922 5922 5922 5922 5922 5923 5923 5923 5923 5924 5924 5924 5925 5924 5924 5924 5925 5926 5927 5926 5925 5925 5926 5926 5927 5927 5927 5928
5897 5898 5899 5898 5898 5899 5900 5899 5900 5901 5902 5902 5903 5904 5904 5904 5905 5905 5906 5906 5907 5907 5908 5909 5909 5910 5910 5911 5912 5912 5912 5912 5912 5913 5913 5912 5912 5913 5913 5914 5914 5915 5915 5916 5916 5916 5916 5916 5916 5916 5917 5917 5917 5917 5917 5917 5917 5917 5918 5918 5918 5918 5918 5919 5920 5922 5922 5921 5922 5922 5922 5922 5922 5923 5923 5923 5923 5924 5924 5925 5925 5925 5925 5924 5924 5925 5926 5927 5927 5926 5927 5928 5927 5927 5927 5927 5929
5897 5898 5899 5898 5898 5899 5899 5900 5900 5901 5902 5902 5903 5904 5904 5905 5906 5906 5906 5907 5907 5908 5909 5909 5910 5910 5911 5911 5912 5912 5912 5913 5913 5913 5913 5913 5913 5913 5914 5914 5915 5915 5915 5916 5916 5916 5916 5916 5916 5917 5917 5917 5917 5917 5917 5917 5917 5918 5918 5918 5919 5919 5919 5919 5920 5922 5923 5922 5922 5923 5923 5923 5923 5923 5924 5924 5924 5925 5925 5925 5925 5925 5925 5925 5925 5925 5926 5927 5927 5927 5927 5928 5928 5927 5927 5928 5929
5898 5899 5899 5899 5899 5899 5900 5900 5901 5901 5902 5903 5904 5904 5905 5905 5906 5907 5907 5907 5908 5908 5909 5910 5910 5910 5911 5911 5912 5913 5913 5913 5913 5913 5914 5914 5914 5914 5914 5915 5915 5915 5915 5916 5916 5916 5917 5917 5917 5918 5918 5918 5918 5918 5918 5918 5918 5918 5919 5919 5920 5920 5920 5920 5921 5923 5924 5923 5924 5924 5924 5924 5924 5924 5925 5925 5925 5925 5925 5926 5926 5926 5926 5926 5926 5926 5926 5926 5927 5926 5926 5926 5926 5927 5927 5927 5928
5898 5899 5899 5899 5899 5900 5900 5900 5901 5902 5903 5904 5904 5904 5905 5905 5906 5907 5907 5908 5908 5909 5909 5910 5910 5911 5911 5912 5912 5913 5913 5913 5913 5913 5914 5914 5914 5915 5915 5915 5916 5916 5916 5916 5916 5916 5917 5917 5918 5919 5919 5918 5918 5919 5919 5919 5919 5919 5920 5920 5921 5921 5921 5921 5922 5923 5924 5924 5925 5925 5925 5925 5925 5926 5926 5926 5926 5926 5926 5926 5927 5927 5927 5927 5927 5927 5927 5927 5927 5926 5926 5925 5925 5926 5926 5926 5927
5898 5898 5898 5899 5900 5900 5900 5901 5902 5902 5903 5904 5904 5905 5905 5906 5906 5907 5907 5908 5908 5909 5909 5910 5910 5911 5911 5912 5913 5913 5913 5913 5913 5914 5914 5915 5915 5915 5916 5916 5917 5916 5916 5916 5916 5917 5917 5918 5918 5919 5919 5919 5919 5920 5920 5920 5920 5920 5921 5921 5921 5922 5922 5922 5923 5923 5924 5925 5925 5926 5926 5926 5926 5926 5926 5926 5926 5927 5927 5927 5927 5928 5928 5928 5928 5928 5928 5928 5928 5928 5928 5927 5927 5927 5926 5926 5927
5897 5897 5898 5899 5900 5900 5901 5902 5902 5902 5903 5904 5905 5905 5906 5906 5906 5907 5908 5908 5909 5909 5910 5910 5911 5911 5912 5912 5913 5913 5913 5914 5914 5914 5914 5915 5916 5916 5916 5917 5917 5917 5917 5917 5917 5917 5918 5918 5919 5919 5919 5919 5920 5920 5920 5920 5920 5921 5921 5922 5922 5923 5923 5924 5924 5924 5925 5925 5926 5926 5926 5927 5927 5927 5927 5927 5927 5928 5928 5928 5928 5928 5929 5929 5929 5930 5930 5930 5930 5930 5930 5930 5929 5929 5929 5929 5930
5897 5897 5898 5899 5899 5900 5901 5902 5902 5903 5903 5904 5905 5905 5906 5906 5907 5908 5908 5909 5909 5910 5910 5911 5911 5911 5912 5912 5913 5913 5914 5914 5914 5914 5915 5915 5916 5916 5916 5917 5918 5917 5917 5917 5917 5918 5918 5919 5919 5920 5920 5920 5920 5921 5921 5921 5921 5921 5922 5923 5923 5924 5924 5925 5925 5926 5926 5926 5927 5927 5927 5928 5928 5928 5928 5928 5929 5929 5929 5929 5929 5929 5930 5930 5931 5931 5931 5932 5931 5931 5931 5932 5932 5931 5931 5931 5932
5896 5897 5897 5898 5899 5900 5900 5901 5902 5903 5903 5904 5905 5905 5906 5907 5907 5908 5909 5909 5910 5910 5911 5911 5912 5912 5912 5912 5913 5913 5914 5914 5914 5914 5915 5916 5916 5916 5917 5917 5918 5918 5917 5918 5918 5918 5919 5919 5920 5920 5920 5920 5921 5921 5921 5922 5922 5922 5923 5924 5924 5925 5925 5926 5927 5927 5927 5927 5928 5928 5928 5929 5929 5929 5930 5930 5930 5930 5930 5930 5930 5931 5931 5931 5932 5932 5933 5933 5933 5932 5933 5933 5933 5933 5933 5932 5933
5896 5897 5897 5898 5899 5900 5900 5901 5902 5902 5903 5904 5905 5905 5906 5907 5908 5909 5909 5910 5910 5910 5911 5911 5912 5913 5913 5913 5913 5913 5914 5914 5914 5915 5915 5916 5916 5916 5917 5917 5918 5918 5917 5918 5918 5919 5919 5920 5920 5921 5921 5921 5921 5921 5922 5922 5923 5923 5924 5925 5925 5926 5927 5927 5928 5928 5929 5929 5929 5929 5930 5930 5930 5930 5931 5931 5931 5931 5931 5932 5932 5932 5932 5933 5933 5933 5934 5934 5934 5934 5934 5934 5935 5934 5934 5933 5934
5896 5896 5897 5898 5899 5899 5900 5901 5902 5902 5903 5904 5904 5905 5906 5907 5908 5908 5909 5910 5910 5911 5911 5911 5912 5913 5913 5913 5913 5914 5914 5914 5914 5915 5915 5916 5916 5916 5917 5918 5918 5918 5918 5918 5918 5919 5920 5920 5920 5921 5921 5921 5922 5922 5922 5923 5923 5924 5925 5926 5926 5927 5928 5929 5929 5930 5930 5930 5931 5931 5931 5931 5931 5931 5932 5932 5932 5933 5933 5933 5933 5933 5933 5934 5934 5935 5935 5935 5935 5935 5935 5936 5936 5935 5934 5934 5934
5896 5896 5897 5897 5898 5899 5900 5901 5901 5902 5902 5903 5904 5905 5906 5906 5907 5908 5909 5910 5910 5911 5911 5911 5912 5913 5913 5913 5913 5914 5915 5914 5914 5915 5915 5915 5916 5917 5917 5918 5918 5918 5918 5918 5919 5919 5920 5920 5921 5921 5922 5922 5922 5923 5923 5924 5924 5925 5926 5927 5928 5928 5929 5930 5931 5931 5931 5932 5932 5933 5933 5933 5933 5933 5934 5934 5934 5935 5935 5935 5935 5935 5935 5935 5936 5936 5937 5937 5937 5937 5937 5937 5937 5936 5935 5935 5934
5895 5896 5896 5897 5897 5898 5899 5900 5901 5902 5902 5903 5903 5904 5905 5906 5907 5907 5908 5909 5909 5910 5910 5911 5912 5912 5912 5912 5913 5913 5915 5915 5915 5915 5915 5915 5916 5917 5917 5918 5918 5918 5918 5918 5919 5919 5920 5921 5921 5922 5922 5922 5923 5923 5924 5925 5925 5926 5927 5928 5929 5930 5931 5931 5932 5932 5932 5933 5934 5934 5935 5934 5934 5935 5935 5936 5936 5936 5936 5936 5936 5936 5937 5937 5937 5938 5938 5938 5938 5938 5938 5938 5938 5937 5937 5936 5936
5894 5895 5895 5896 5897 5898 5899 5900 5901 5902 5902 5903 5903 5904 5905 5906 5906 5907 5908 5908 5908 5909 5909 5910 5911 5911 5911 5912 5912 5913 5914 5915 5915 5915 5915 5915 5916 5917 5917 5918 5918 5918 5918 5918 5919 5920 5920 5921 5922 5922 5923 5923 5923 5924 5925 5925 5926 5927 5928 5929 5930 5931 5932 5933 5933 5933 5933 5934 5935 5936 5936 5936 5936 5936 5936 5937 5937 5937 5938 5938 5938 5938 5938 5938 5939 5939 5940 5940 5940 5940 5939 5939 5939 5939 5938 5938 5937
5894 5894 5895 5895 5897 5898 5899 5900 5900 5901 5902 5902 5903 5904 5905 5905 5906 5907 5907 5907 5908 5909 5910 5910 5911 5911 5911 5911 5912 5912 5913 5915 5915 5915 5915 5915 5916 5917 5918 5918 5918 5918 5918 5919 5919 5920 5921 5921 5922 5923 5923 5923 5924 5925 5926 5926 5927 5928 5929 5930 5931 5932 5933 5934 5934 5934 5935 5935 5936 5937 5937 5938 5937 5937 5938 5938 5938 5939 5939 5939 5939 5940 5940 5940 5940 5940 5941 5941 5941 5941 5940 5940 5940 5940 5940 5939 5939
5893 5894 5894 5895 5896 5898 5899 5899 5900 5901 5901 5902 5903 5903 5904 5904 5905 5906 5906 5907 5908 5909 5910 5910 5910 5911 5911 5911 5912 5912 5913 5914 5915 5915 5915 5916 5916 5917 5917 5918 5918 5918 5918 5919 5919 5920 5921 5922 5922 5923 5924 5924 5925 5926 5926 5927 5929 5929 5930 5931 5932 5933 5934 5935 5935 5935 5935 5936 5937 5938 5939 5939 5939 5939 5939 5939 5940 5940 5941 5941 5941 5941 5941 5941 5941 5941 5942 5942 5942 5942 5942 5941 5941 5941 5941 5941 5941
5892 5892 5893 5894 5896 5897 5898 5899 5900 5901 5901 5901 5902 5903 5903 5904 5904 5905 5906 5907 5908 5909 5910 5910 5910 5911 5911 5911 5912 5912 5912 5913 5914 5914 5914 5915 5916 5917 5917 5917 5917 5918 5918 5919 5920 5920 5921 5922 5923 5923 5924 5925 5926 5927 5928 5928 5930 5931 5931 5932 5933 5935 5935 5936 5936 5936 5936 5937 5938 5939 5939 5940 5940 5940 5940 5941 5941 5942 5942 5942 5942 5942 5943 5943 5943 5943 5943 5943 5943 5943 5943 5942 5942 5942 5942 5942 5942
5891 5892 5893 5894 5895 5897 5898 5899 5900 5900 5901 5901 5902 5903 5903 5904 5904 5905 5905 5906 5907 5908 5909 5910 5910 5911 5911 5912 5912 5912 5912 5912 5913 5914 5914 5915 5916 5916 5917 5917 5917 5918 5918 5919 5920 5921 5922 5922 5923 5924 5925 5926 5927 5928 5929 5930 5931 5932 5932 5933 5934 5936 5936 5937 5937 5937 5937 5938 5939 5940 5940 5941 5941 5941 5941 5942 5942 5943 5943 5943 5943 5943 5944 5943 5943 5944 5944 5944 5944 5944 5944 5943 5943 5943 5943 5943 5943
5890 5891 5892 5892 5894 5895 5897 5898 5899 5900 5901 5902 5903 5903 5903 5904 5904 5905 5905 5906 5907 5907 5908 5909 5910 5910 5911 5911 5911 5911 5911 5911 5912 5914 5914 5914 5915 5916 5917 5917 5917 5918 5918 5919 5920 5921 5922 5923 5923 5924 5925 5926 5928 5929 5930 5931 5932 5933 5934 5935 5936 5937 5937 5938 5938 5938 5938 5939 5940 5940 5941 5941 5942 5942 5942 5942 5943 5943 5943 5944 5944 5944 5944 5944 5944 5945 5945 5945 5945 5945 5945 5945 5945 5945 5945 5945 5945
5887 5889 5890 5891 5892 5894 5896 5898 5898 5899 5900 5901 5902 5903 5903 5904 5904 5905 5905 5906 5906 5907 5908 5909 5909 5910 5910 5910 5910 5911 5911 5911 5912 5913 5914 5914 5915 5916 5916 5917 5917 5918 5918 5919 5920 5921 5922 5923 5924 5924 5925 5927 5929 5930 5930 5932 5933 5934 5935 5936 5937 5938 5939 5939 5939 5939 5940 5940 5941 5941 5942 5942 5943 5943 5943 5943 5944 5944 5944 5944 5945 5945 5945 5946 5946 5946 5946 5946 5946 5946 5946 5946 5946 5946 5946 5946 5946
5885 5886 5888 5889 5890 5892 5894 5896 5897 5899 5899 5900 5901 5901 5903 5904 5905 5905 5905 5905 5906 5906 5907 5908 5908 5909 5909 5910 5910 5910 5911 5911 5912 5913 5914 5914 5915 5915 5916 5917 5917 5918 5918 5919 5920 5921 5922 5923 5924 5925 5926 5927 5929 5930 5931 5932 5934 5935 5936 5937 5938 5939 5940 5940 5941 5941 5941 5942 5942 5943 5943 5943 5944 5944 5944 5944 5945 5945 5945 5945 5946 5946 5947 5947 5947 5947 5948 5948 5948 5948 5948 5948 5948 5948 5948 5948 5947
5882 5883 5885 5887 5889 5891 5893 5894 5896 5898 5898 5899 5900 5901 5902 5902 5904 5905 5904 5904 5905 5905 5906 5907 5908 5908 5909 5909 5909 5909 5910 5911 5912 5913 5913 5914 5914 5915 5915 5916 5917 5918 5918 5919 5920 5921 5922 5924 5924 5925 5926 5928 5929 5931 5932 5933 5935 5936 5937 5938 5939 5940 5941 5941 5942 5942 5942 5943 5943 5944 5944 5944 5945 5945 5946 5946 5946 5946 5946 5946 5947 5947 5948 5948 5948 5948 5948 5949 5949 5949 5949 5949 5949 5949 5949 5949 5949
5878 5879 5882 5885 5887 5890 5892 5893 5895 5897 5898 5898 5899 5900 5901 5902 5903 5904 5904 5904 5904 5905 5905 5906 5907 5908 5908 5909 5909 5909 5910 5911 5911 5912 5913 5913 5913 5914 5915 5916 5916 5917 5918 5919 5920 5921 5922 5924 5925 5926 5927 5928 5930 5932 5933 5934 5935 5937 5938 5939 5940 5941 5942 5942 5943 5943 5944 5944 5944 5944 5945 5945 5945 5946 5946 5947 5947 5947 5947 5948 5948 5948 5949 5949 5949 5949 5949 5949 5950 5950 5949 5949 5950 5950 5950 5950 5950
5875 5877 5880 5883 5886 5889 5891 5892 5894 5895 5896 5897 5898 5899 5901 5902 5903 5904 5904 5904 5904 5905 5905 5906 5907 5908 5908 5908 5909 5909 5910 5911 5912 5912 5912 5912 5912 5913 5914 5915 5916 5917 5918 5919 5920 5921 5923 5924 5925 5926 5927 5928 5930 5932 5934 5935 5936 5937 5939 5940 5941 5942 5942 5943 5943 5944 5945 5945 5945 5945 5946 5946 5946 5946 5947 5947 5948 5948 5948 5949 5949 5949 5950 5950 5950 5950 5950 5950 5950 5950 5950 5950 5950 5950 5951 5951 5951
5872 5874 5878 5880 5883 5887 5889 5891 5892 5894 5894 5896 5898 5899 5900 5901 5902 5903 5903 5904 5904 5904 5905 5905 5906 5907 5907 5908 5908 5909 5909 5910 5911 5911 5911 5911 5912 5912 5913 5914 5915 5916 5918 5919 5920 5921 5923 5924 5925 5926 5928 5929 5930 5932 5934 5936 5937 5938 5939 5940 5941 5942 5943 5944 5944 5945 5946 5946 5946 5946 5946 5947 5947 5947 5947 5948 5948 5948 5949 5949 5950 5950 5950 5950 5951 5951 5951 5952 5952 5951 5951 5951 5951 5951 5951 5951 5952
5869 5872 5875 5877 5880 5884 5887 5888 5890 5892 5893 5895 5896 5898 5899 5899 5901 5903 5903 5903 5903 5903 5904 5904 5905 5906 5907 5907 5908 5909 5909 5909 5909 5910 5911 5911 5912 5912 5913 5914 5915 5916 5918 5919 5920 5921 5923 5924 5926 5927 5928 5929 5931 5933 5934 5936 5937 5939 5940 5941 5942 5943 5943 5944 5945 5946 5947 5947 5947 5947 5947 5947 5947 5948 5948 5948 5948 5949 5949 5950 5950 5950 5951 5951 5951 5952 5952 5952 5952 5952 5952 5952 5952 5952 5952 5952 5952
5867 5869 5872 5875 5878 5882 5884 5886 5888 5890 5891 5893 5895 5896 5897 5898 5900 5902 5902 5903 5903 5903 5903 5904 5905 5906 5906 5907 5908 5908 5908 5908 5908 5909 5910 5911 5912 5912 5913 5914 5915 5916 5917 5918 5919 5921 5922 5924 5926 5927 5929 5930 5931 5933 5934 5936 5938 5939 5940 5941 5942 5943 5944 5945 5945 5946 5947 5948 5948 5948 5948 5948 5948 5948 5948 5949 5949 5949 5950 5950 5950 5951 5951 5951 5952 5952 5952 5953 5953 5953 5953 5953 5953 5953 5953 5953 5953
5865 5866 5869 5873 5877 5881 5883 5884 5887 5888 5889 5891 5893 5895 5896 5898 5900 5901 5902 5902 5902 5903 5903 5903 5904 5905 5906 5907 5907 5907 5907 5907 5908 5909 5910 5911 5912 5912 5913 5914 5915 5916 5916 5918 5919 5921 5922 5924 5925 5927 5929 5930 5931 5933 5935 5936 5938 5939 5941 5942 5943 5944 5944 5945 5946 5947 5948 5949 5949 5949 5949 5949 5949 5949 5949 5949 5950 5950 5950 5950 5951 5951 5952 5952 5952 5952 5953 5953 5953 5953 5953 5954 5954 5953 5953 5954 5954
5861 5864 5868 5872 5876 5880 5881 5883 5886 5887 5888 5890 5892 5893 5894 5896 5898 5900 5901 5901 5902 5902 5902 5903 5903 5904 5905 5906 5907 5907 5907 5908 5908 5909 5910 5910 5911 5911 5912 5913 5914 5915 5916 5918 5919 5920 5922 5923 5925 5927 5929 5930 5931 5933 5935 5936 5938 5939 5941 5942 5943 5944 5945 5946 5947 5948 5948 5949 5950 5950 5950 5950 5950 5950 5950 5950 5950 5950 5950 5951 5951 5951 5952 5952 5953 5953 5953 5953 5954 5954 5954 5955 5955 5954 5954 5954 5955
5861 5864 5868 5871 5874 5877 5879 5881 5884 5884 5886 5888 5890 5892 5893 5895 5897 5898 5899 5900 5901 5901 5901 5902 5902 5903 5904 5905 5906 5906 5906 5907 5908 5908 5909 5909 5910 5911 5911 5912 5913 5915 5916 5917 5919 5920 5921 5923 5924 5926 5928 5930 5932 5933 5935 5937 5938 5940 5941 5942 5944 5945 5946 5946 5947 5948 5949 5950 5950 5951 5951 5951 5950 5950 5950 5950 5950 5951 5951 5951 5952 5952 5952 5953 5953 5954 5954 5954 5954 5955 5955 5955 5955 5955 5955 5955 5955
5862 5865 5868 5870 5872 5875 5877 5878 5880 5882 5884 5886 5888 5890 5891 5892 5894 5896 5898 5899 5900 5900 5900 5901 5901 5902 5903 5904 5905 5905 5906 5906 5907 5907 5908 5908 5909 5909 5911 5912 5913 5914 5916 5917 5919 5920 5922 5923 5925 5926 5928 5930 5932 5934 5936 5937 5939 5940 5942 5943 5944 5945 5946 5947 5947 5948 5949 5950 5950 5951 5951 5951 5951 5951 5951 5950 5951 5951 5951 5952 5952 5953 5953 5954 5954 5955 5955 5955 5956 5956 5956 5956 5956 5956 5956 5955 5955
5862 5863 5865 5867 5869 5872 5875 5876 5877 5879 5880 5883 5886 5888 5889 5889 5892 5894 5895 5897 5898 5898 5899 5900 5901 5901 5902 5903 5904 5905 5905 5905 5906 5907 5907 5907 5908 5908 5910 5911 5912 5914 5915 5917 5919 5920 5922 5924 5925 5927 5928 5930 5932 5934 5936 5938 5939 5940 5942 5943 5944 5945 5946 5947 5947 5948 5949 5950 5950 5951 5951 5951 5952 5951 5951 5951 5951 5952 5952 5952 5953 5954 5954 5955 5955 5956 5956 5956 5956 5956 5956 5956 5956 5956 5956 5956 5955
5859 5860 5862 5863 5865 5868 5871 5873 5874 5876 5877 5880 5883 5885 5886 5887 5889 5891 5892 5894 5896 5897 5899 5899 5900 5900 5901 5902 5903 5904 5904 5905 5906 5906 5906 5907 5907 5908 5909 5910 5912 5913 5915 5917 5918 5920 5921 5923 5925 5926 5928 5930 5932 5934 5936 5938 5939 5940 5941 5942 5943 5944 5945 5946 5947 5948 5949 5950 5950 5951 5951 5952 5952 5952 5952 5952 5952 5953 5953 5953 5954 5955 5956 5956 5957 5957 5957 5957 5957 5957 5957 5957 5957 5957 5957 5956 5956
5855 5856 5858 5860 5862 5865 5868 5869 5871 5872 5873 5877 5879 5881 5884 5885 5887 5888 5889 5891 5894 5896 5897 5898 5898 5898 5899 5900 5901 5902 5903 5904 5906 5906 5906 5906 5907 5907 5909 5910 5912 5913 5914 5916 5917 5919 5920 5922 5924 5926 5928 5930 5932 5934 5935 5937 5938 5938 5939 5941 5942 5943 5945 5946 5947 5948 5949 5950 5951 5951 5952 5952 5952 5953 5953 5952 5953 5954 5954 5954 5955 5956 5956 5957 5958 5958 5958 5958 5958 5958 5958 5958 5958 5957 5957 5957 5957
5850 5852 5855 5857 5859 5863 5865 5867 5868 5868 5870 5873 5875 5877 5881 5882 5883 5884 5886 5889 5892 5893 5894 5895 5895 5896 5897 5899 5900 5901 5902 5904 5905 5905 5905 5905 5906 5907 5908 5909 5911 5912 5913 5915 5916 5918 5920 5922 5924 5926 5927 5929 5931 5933 5934 5936 5937 5938 5939 5941 5942 5943 5945 5946 5947 5948 5949 5950 5951 5952 5952 5953 5953 5953 5953 5953 5954 5954 5955 5955 5956 5956 5957 5958 5958 5959 5959 5959 5959 5959 5959 5959 5959 5958 5958 5958 5959
5846 5848 5851 5854 5858 5861 5862 5863 5864 5865 5867 5870 5871 5873 5876 5878 5879 5881 5884 5887 5889 5890 5891 5891 5892 5894 5895 5896 5897 5899 5901 5902 5903 5904 5904 5904 5905 5906 5907 5908 5910 5911 5913 5915 5917 5918 5920 5921 5923 5925 5927 5928 5930 5932 5933 5934 5936 5938 5940 5941 5943 5944 5946 5947 5948 5948 5949 5950 5951 5952 5953 5953 5954 5954 5954 5954 5954 5955 5955 5956 5956 5957 5958 5959 5959 5959 5960 5960 5960 5960 5960 5960 5960 5959 5959 5960 5960
5842 5844 5848 5852 5856 5858 5859 5859 5860 5862 5864 5867 5868 5869 5871 5873 5876 5879 5882 5884 5885 5888 5889 5891 5891 5892 5893 5894 5895 5897 5899 5900 5901 5903 5903 5904 5904 5905 5906 5907 5908 5910 5912 5914 5916 5917 5918 5920 5922 5924 5925 5927 5929 5931 5932 5934 5936 5938 5940 5942 5943 5945 5946 5947 5948 5948 5949 5950 5950 5951 5953 5954 5954 5954 5954 5954 5955 5956 5956 5956 5957 5958 5959 5960 5960 5960 5960 5961 5961 5960 5960 5961 5961 5960 5961 5961 5961
5840 5842 5846 5850 5853 5854 5856 5856 5857 5858 5861 5863 5864 5864 5866 5870 5873 5876 5878 5880 5883 5885 5888 5891 5891 5891 5892 5894 5896 5897 5898 5900 5901 5902 5903 5903 5903 5904 5905 5906 5907 5909 5911 5912 5914 5915 5916 5918 5920 5922 5924 5926 5928 5930 5932 5934 5937 5939 5940 5942 5943 5944 5945 5946 5947 5948 5948 5949 5950 5951 5953 5954 5955 5955 5955 5955 5956 5956 5957 5957 5957 5958 5960 5960 5961 5961 5961 5961 5961 5961 5961 5961 5961 5961 5962 5962 5962
5837 5842 5845 5846 5847 5849 5852 5853 5853 5853 5856 5860 5860 5859 5862 5866 5869 5872 5874 5876 5880 5882 5885 5889 5890 5891 5893 5894 5895 5896 5898 5899 5901 5902 5902 5903 5903 5903 5904 5905 5907 5908 5909 5911 5912 5914 5915 5917 5920 5921 5923 5925 5927 5929 5932 5935 5937 5939 5940 5941 5942 5943 5944 5945 5946 5947 5948 5949 5950 5951 5953 5954 5955 5955 5955 5955 5956 5956 5957 5957 5958 5959 5960 5961 5961 5962 5962 5962 5962 5962 5962 5962 5962 5962 5962 5962 5962
5836 5840 5840 5839 5842 5845 5848 5850 5849 5849 5852 5856 5856 5855 5857 5861 5864 5868 5870 5873 5876 5877 5881 5886 5888 5890 5892 5894 5895 5896 5897 5898 5900 5901 5901 5902 5902 5902 5903 5904 5905 5906 5908 5909 5911 5913 5915 5917 5918 5920 5922 5924 5926 5929 5932 5934 5936 5938 5940 5940 5941 5942 5943 5944 5945 5947 5948 5949 5950 5951 5953 5954 5954 5954 5955 5956 5956 5957 5957 5958 5958 5959 5960 5961 5962 5962 5962 5962 5963 5963 5962 5962 5962 5962 5962 5963 5963
5834 5836 5833 5835 5838 5840 5843 5845 5844 5847 5848 5848 5850 5851 5851 5856 5862 5865 5866 5869 5872 5874 5879 5883 5887 5889 5891 5893 5894 5894 5895 5896 5898 5899 5900 5900 5900 5901 5901 5902 5903 5905 5906 5908 5910 5912 5913 5915 5917 5918 5921 5923 5926 5928 5931 5933 5935 5937 5939 5940 5941 5941 5943 5944 5946 5947 5948 5949 5950 5951 5953 5954 5954 5954 5955 5956 5956 5957 5957 5958 5958 5959 5960 5961 5961 5962 5962 5963 5963 5963 5963 5963 5963 5963 5963 5963 5963
5829 5830 5828 5831 5834 5835 5837 5837 5840 5843 5839 5839 5846 5847 5847 5852 5859 5861 5862 5866 5870 5874 5878 5882 5885 5888 5889 5891 5892 5892 5893 5894 5896 5897 5898 5899 5899 5900 5900 5901 5902 5904 5906 5907 5908 5910 5912 5914 5916 5918 5920 5922 5925 5928 5930 5932 5934 5936 5938 5939 5940 5941 5943 5945 5946 5947 5948 5949 5950 5952 5953 5953 5954 5954 5955 5956 5956 5957 5957 5958 5959 5959 5960 5961 5962 5962 5963 5963 5963 5964 5964 5964 5964 5964 5963 5963 5964
5823 5823 5822 5825 5827 5829 5831 5832 5835 5835 5828 5831 5842 5844 5844 5848 5854 5856 5859 5866 5870 5873 5876 5879 5883 5886 5887 5889 5889 5890 5891 5892 5894 5895 5896 5897 5898 5899 5900 5901 5902 5903 5905 5906 5908 5910 5912 5914 5916 5917 5919 5921 5924 5926 5929 5931 5933 5935 5937 5938 5940 5942 5944 5945 5946 5947 5948 5949 5950 5951 5952 5953 5954 5954 5955 5956 5956 5957 5957 5958 5959 5959 5960 5961 5962 5962 5963 5963 5963 5964 5964 5964 5964 5964 5964 5964 5964
5815 5815 5816 5819 5821 5824 5825 5827 5828 5824 5820 5827 5839 5842 5840 5842 5849 5854 5858 5864 5867 5869 5873 5877 5880 5884 5886 5887 5888 5889 5890 5890 5892 5893 5894 5895 5897 5899 5901 5901 5901 5902 5904 5906 5907 5909 5911 5913 5915 5916 5918 5920 5923 5925 5927 5929 5931 5933 5935 5937 5939 5941 5943 5945 5946 5946 5947 5948 5949 5951 5952 5953 5954 5954 5955 5955 5956 5957 5958 5958 5959 5960 5960 5961 5962 5962 5963 5963 5963 5963 5964 5964 5965 5965 5964 5964 5964
5808 5808 5809 5812 5815 5817 5818 5820 5821 5818 5818 5825 5835 5837 5833 5836 5847 5853 5855 5859 5862 5867 5871 5874 5878 5881 5883 5885 5886 5888 5889 5889 5890 5891 5892 5894 5896 5898 5900 5900 5900 5901 5903 5904 5906 5908 5910 5912 5914 5916 5918 5919 5921 5923 5926 5928 5930 5932 5934 5936 5938 5941 5943 5944 5945 5946 5947 5948 5949 5950 5952 5953 5953 5954 5955 5955 5956 5957 5958 5959 5960 5960 5961 5961 5962 5962 5963 5963 5963 5963 5964 5964 5965 5965 5965 5965 5965
5801 5802 5804 5806 5809 5811 5812 5815 5816 5817 5817 5822 5832 5833 5826 5833 5846 5849 5852 5857 5861 5865 5868 5871 5874 5877 5880 5882 5884 5885 5887 5888 5888 5889 5890 5892 5895 5897 5898 5898 5899 5900 5901 5903 5904 5906 5908 5910 5912 5914 5916 5918 5920 5922 5924 5926 5929 5931 5932 5935 5937 5939 5941 5943 5944 5945 5946 5948 5949 5950 5951 5952 5953 5954 5955 5956 5957 5958 5959 5959 5960 5961 5961 5962 5962 5962 5963 5963 5963 5963 5964 5964 5965 5965 5965 5965 5965
5797 5799 5802 5803 5806 5809 5812 5814 5814 5815 5815 5819 5828 5827 5821 5830 5843 5848 5852 5856 5858 5861 5864 5867 5871 5874 5877 5879 5880 5882 5884 5886 5887 5887 5889 5891 5893 5895 5896 5897 5898 5899 5900 5901 5903 5905 5907 5909 5911 5913 5915 5917 5919 5920 5922 5925 5927 5929 5931 5933 5936 5938 5940 5941 5943 5944 5946 5947 5948 5949 5950 5951 5953 5954 5955 5957 5958 5958 5959 5960 5960 5961 5962 5962 5963 5963 5963 5963 5963 5964 5964 5964 5965 5965 5965 5965 5965
5792 5796 5797 5798 5804 5809 5811 5813 5814 5816 5816 5816 5821 5820 5818 5830 5844 5848 5850 5852 5854 5858 5861 5865 5868 5871 5873 5875 5877 5880 5882 5884 5885 5885 5887 5889 5891 5893 5894 5895 5897 5898 5899 5900 5902 5904 5906 5907 5909 5911 5913 5915 5917 5918 5921 5922 5924 5927 5929 5932 5934 5936 5938 5940 5941 5943 5945 5946 5947 5948 5950 5951 5952 5954 5955 5957 5958 5959 5959 5960 5961 5961 5962 5962 5963 5963 5964 5964 5964 5964 5964 5964 5965 5965 5965 5966 5966
5787 5789 5791 5797 5804 5806 5806 5808 5810 5812 5812 5810 5814 5818 5821 5832 5843 5845 5846 5849 5852 5856 5858 5861 5865 5867 5870 5872 5875 5878 5880 5882 5884 5884 5885 5886 5888 5891 5893 5894 5895 5897 5898 5899 5901 5902 5904 5906 5907 5909 5911 5913 5915 5917 5918 5920 5922 5924 5927 5930 5932 5935 5936 5938 5940 5941 5943 5945 5946 5947 5949 5950 5951 5953 5955 5956 5957 5958 5959 5960 5961 5961 5962 5962 5963 5963 5964 5964 5964 5964 5964 5964 5965 5965 5966 5966 5966
5782 5785 5790 5796 5798 5797 5798 5802 5804 5806 5806 5805 5809 5817 5822 5830 5838 5841 5844 5847 5850 5853 5855 5858 5862 5864 5866 5870 5873 5875 5878 5880 5882 5884 5884 5884 5886 5888 5891 5893 5894 5896 5897 5898 5899 5900 5902 5904 5906 5908 5910 5912 5914 5915 5917 5918 5920 5922 5925 5928 5930 5933 5934 5936 5938 5939 5941 5943 5945 5946 5948 5949 5951 5952 5954 5955 5956 5958 5959 5959 5960 5961 5961 5962 5962 5963 5963 5964 5964 5964 5965 5965 5965 5965 5965 5966 5966
5778 5782 5787 5788 5788 5790 5792 5795 5798 5801 5800 5800 5805 5813 5819 5826 5833 5839 5843 5845 5849 5851 5853 5856 5859 5861 5865 5868 5871 5873 5876 5878 5880 5882 5882 5883 5884 5886 5888 5891 5892 5894 5895 5896 5897 5898 5900 5902 5904 5907 5908 5910 5911 5913 5914 5916 5918 5920 5923 5925 5927 5930 5932 5934 5936 5938 5940 5942 5943 5945 5946 5948 5950 5951 5953 5954 5955 5957 5958 5958 5959 5960 5961 5961 5962 5962 5963 5963 5964 5965 5965 5965 5965 5965 5965 5965 5966
5772 5777 5778 5779 5782 5786 5789 5791 5795 5798 5797 5798 5803 5809 5815 5823 5830 5837 5841 5844 5847 5849 5851 5854 5856 5859 5863 5867 5869 5871 5873 5875 5877 5879 5881 5882 5883 5884 5886 5889 5890 5892 5894 5895 5895 5897 5898 5900 5902 5904 5906 5908 5910 5911 5913 5915 5917 5919 5920 5923 5925 5928 5930 5932 5934 5936 5938 5940 5941 5943 5945 5947 5949 5950 5952 5953 5955 5956 5957 5957 5958 5959 5960 5961 5961 5962 5962 5963 5963 5964 5965 5965 5965 5965 5965 5965 5965
5764 5767 5768 5772 5777 5782 5785 5786 5790 5795 5795 5796 5801 5805 5813 5822 5828 5833 5838 5842 5844 5846 5848 5851 5854 5858 5862 5864 5867 5869 5870 5872 5874 5876 5879 5881 5882 5883 5884 5886 5888 5889 5891 5892 5894 5895 5897 5898 5900 5903 5905 5907 5909 5911 5913 5914 5916 5917 5919 5921 5923 5926 5928 5930 5932 5934 5936 5938 5940 5942 5943 5945 5947 5949 5951 5952 5953 5955 5956 5957 5957 5958 5959 5960 5961 5961 5962 5962 5963 5963 5964 5964 5964 5964 5964 5965 5965
5755 5759 5761 5768 5773 5776 5779 5781 5784 5789 5790 5791 5796 5800 5809 5820 5824 5828 5833 5838 5841 5844 5847 5850 5853 5856 5859 5862 5864 5866 5868 5870 5872 5874 5876 5878 5880 5882 5883 5884 5885 5886 5888 5890 5892 5893 5895 5897 5899 5901 5903 5906 5908 5910 5912 5913 5915 5917 5918 5920 5921 5923 5925 5928 5930 5932 5934 5936 5938 5940 5942 5944 5946 5947 5949 5950 5952 5953 5954 5955 5956 5957 5958 5959 5960 5961 5961 5962 5962 5962 5963 5963 5964 5964 5964 5964 5964